FW9465 Weather Reports


Display with metric or nautical units.
time (UTC)temp
F
wind
direction
speed
MPH
gust
MPH
rain 1hr
in
rain 24hr
in
rain mn
in
humidity
%
barometer
mb
20260510061037 73 157 4.0 5.0 0.00 0.00 0.00 71 1009.3
20260510060038 74 157 2.0 4.0 0.00 0.00 0.00 70 1009.2
20260510055037 74 158 5.0 7.0 0.00 0.00 0.00 69 1009.0
20260510054038 75 160 4.0 7.0 0.00 0.00 0.00 69 1008.9
20260510053136 75 159 5.0 9.0 0.00 0.00 0.00 68 1008.7
20260510051236 75 151 6.0 9.0 0.00 0.00 0.00 67 1008.6
20260510050336 75 156 8.0 11.0 0.00 0.00 0.00 67 1008.6
20260510045339 75 155 9.0 14.0 0.00 0.00 0.00 66 1008.5
20260510044340 75 148 8.0 12.0 0.00 0.00 0.00 65 1008.5
20260510043425 75 157 9.0 11.0 0.00 0.00 0.00 64 1008.4
20260510042443 76 157 7.0 9.0 0.00 0.00 0.00 63 1008.8
20260510041541 76 157 8.0 10.0 0.00 0.00 0.00 63 1008.8
20260510040625 76 157 5.0 8.0 0.00 0.00 0.00 63 1008.8
20260510035624 76 149 5.0 7.0 0.00 0.00 0.00 64 1009.0
20260510034626 77 149 5.0 7.0 0.00 0.00 0.00 63 1009.1
20260510033640 77 141 7.0 10.0 0.00 0.00 0.00 62 1008.9
20260510032624 77 157 5.0 7.0 0.00 0.00 0.00 61 1009.1
20260510031626 77 140 5.0 7.0 0.00 0.00 0.00 60 1008.9
20260510030722 78 146 6.0 7.0 0.00 0.00 0.00 58 1008.9
20260510025739 78 141 5.0 6.0 0.00 0.00 0.00 58 1008.7
20260510024724 79 157 6.0 8.0 0.00 0.00 0.00 57 1008.6
20260510023740 79 157 6.0 7.0 0.00 0.00 0.00 57 1008.6
20260510022725 79 157 7.0 8.0 0.00 0.00 0.00 57 1008.5
20260510021724 80 157 5.0 7.0 0.00 0.00 0.00 56 1008.5
20260510020723 80 157 5.0 6.0 0.00 0.00 0.00 55 1008.4
20260510020623 80 157 5.0 6.0 0.00 0.00 0.00 55 1008.3
20260510015625 81 157 6.0 7.0 0.00 0.00 0.00 55 1008.1
20260510014724 81 157 6.0 7.0 0.00 0.00 0.00 54 1008.1
20260510013725 82 157 6.0 8.0 0.00 0.00 0.00 53 1008.1
20260510012740 83 149 6.0 7.0 0.00 0.00 0.00 51 1007.9
20260510011726 84 153 5.0 6.0 0.00 0.00 0.00 48 1007.6
20260510010740 85 145 5.0 7.0 0.00 0.00 0.00 46 1007.5
20260510005724 87 139 5.0 7.0 0.00 0.00 0.00 45 1007.5
20260510004724 89 134 4.0 6.0 0.00 0.00 0.00 42 1007.5
20260510003724 90 157 3.0 4.0 0.00 0.00 0.00 40 1007.5
20260510002725 92 157 1.0 3.0 0.00 0.00 0.00 39 1007.3
20260509235824 95 168 2.0 5.0 0.00 0.00 0.00 34 1007.3
20260509234825 95 189 3.0 4.0 0.00 0.00 0.00 34 1007.5
20260509233841 95 200 1.0 4.0 0.00 0.00 0.00 35 1007.6
20260509232923 94 202 0.0 1.0 0.00 0.00 0.00 36 1007.6
20260509231924 93 173 3.0 6.0 0.00 0.00 0.00 35 1007.5
20260509230926 94 90 0.0 0.0 0.00 0.00 0.00 32 1007.5
20260509225925 95 157 3.0 5.0 0.00 0.00 0.00 33 1007.6
20260509224924 93 133 0.0 1.0 0.00 0.00 0.00 34 1007.6
20260509223925 92 67 1.0 2.0 0.00 0.00 0.00 34 1007.6
20260509222940 92 105 2.0 5.0 0.00 0.00 0.00 33 1007.6
20260509221024 93 67 1.0 4.0 0.00 0.00 0.00 33 1007.6
20260509220039 92 135 2.0 4.0 0.00 0.00 0.00 35 1007.7
20260509215122 90 342 2.0 4.0 0.00 0.00 0.00 37 1007.6
20260509213222 90 35 0.0 1.0 0.00 0.00 0.00 37 1007.9
20260509211224 88 76 4.0 5.0 0.00 0.00 0.00 39 1008.1
20260509204324 88 24 4.0 6.0 0.00 0.00 0.00 37 1008.5
20260509203423 89 22 4.0 7.0 0.00 0.00 0.00 40 1008.7
20260509202424 89 55 5.0 8.0 0.00 0.00 0.00 40 1008.7
20260509195624 89 337 3.0 5.0 0.00 0.00 0.00 43 1008.9
20260509194722 88 228 0.0 0.0 0.00 0.00 0.00 43 1009.1
20260509193723 87 298 3.0 5.0 0.00 0.00 0.00 44 1009.2
20260509192724 88 328 1.0 4.0 0.00 0.00 0.00 43 1009.4
20260509191724 87 302 1.0 4.0 0.00 0.00 0.00 43 1009.4
20260509190823 87 45 2.0 4.0 0.00 0.00 0.00 45 1009.5
20260509185822 88 285 1.0 3.0 0.00 0.00 0.00 42 1009.5
20260509184823 87 86 1.0 5.0 0.00 0.00 0.00 44 1009.8
20260509183840 87 290 2.0 5.0 0.00 0.00 0.00 44 1009.7
20260509182839 86 254 4.0 6.0 0.00 0.00 0.00 48 1010.0
20260509181823 86 356 1.0 3.0 0.00 0.00 0.00 47 1010.0
20260509180825 86 87 0.0 1.0 0.00 0.00 0.00 47 1010.0
20260509175823 86 243 3.0 7.0 0.00 0.00 0.00 49 1010.1
20260509174824 84 337 0.0 3.0 0.00 0.00 0.00 50 1010.2
20260509173824 84 249 2.0 5.0 0.00 0.00 0.00 50 1010.3
20260509172838 83 353 1.0 2.0 0.00 0.00 0.00 52 1010.4
20260509171823 82 261 6.0 8.0 0.00 0.00 0.00 51 1010.3
20260509170922 82 269 5.0 7.0 0.00 0.00 0.00 52 1010.3
20260509165925 81 281 3.0 6.0 0.00 0.00 0.00 51 1010.5
20260509164922 81 288 4.0 10.0 0.00 0.00 0.00 54 1010.6
20260509163923 80 271 7.0 10.0 0.00 0.00 0.00 54 1010.7
20260509162924 80 284 4.0 8.0 0.00 0.00 0.00 57 1010.8
20260509161923 80 291 5.0 9.0 0.00 0.00 0.00 56 1011.0
20260509160923 81 296 3.0 5.0 0.00 0.00 0.00 58 1010.8
20260509155939 80 346 4.0 6.0 0.00 0.00 0.00 59 1010.8
20260509154024 79 301 1.0 3.0 0.00 0.00 0.00 61 1010.7
20260509153122 78 16 1.0 3.0 0.00 0.00 0.00 63 1010.5
20260509152122 77 295 5.0 7.0 0.00 0.00 0.00 65 1010.4
20260509151122 76 328 6.0 8.0 0.00 0.00 0.00 66 1010.7
20260509150124 76 330 6.0 8.0 0.00 0.00 0.00 66 1010.7
20260509144122 75 356 4.0 8.0 0.00 0.00 0.00 65 1010.7
20260509143123 75 352 5.0 8.0 0.00 0.00 0.00 70 1010.7
20260509142123 75 310 6.0 8.0 0.00 0.00 0.00 70 1010.7
20260509141122 73 315 3.0 5.0 0.00 0.00 0.00 75 1010.7
20260509140222 72 293 6.0 8.0 0.00 0.00 0.00 76 1011.0
20260509134222 70 279 3.0 6.0 0.00 0.00 0.00 77 1011.2
20260509133239 70 272 4.0 7.0 0.00 0.00 0.00 78 1011.0
20260509132329 69 292 7.0 9.0 0.00 0.00 0.00 77 1011.0
20260509130341 68 279 4.0 8.0 0.00 0.00 0.00 78 1011.0
20260509125323 68 295 3.0 6.0 0.00 0.00 0.00 78 1011.0
20260509124323 68 281 4.0 7.0 0.00 0.00 0.00 77 1011.0
20260509123423 68 322 3.0 7.0 0.00 0.00 0.00 79 1010.8
20260509122440 68 259 3.0 5.0 0.00 0.00 0.00 80 1010.7
20260509121521 67 275 1.0 3.0 0.00 0.00 0.00 81 1010.7
20260509115522 68 292 2.0 4.0 0.00 0.00 0.00 80 1010.3
20260509114524 68 336 4.0 5.0 0.00 0.00 0.00 80 1010.3
20260509113523 68 337 2.0 4.0 0.00 0.00 0.00 79 1009.9
20260509112622 68 22 4.0 6.0 0.00 0.00 0.00 78 1009.7
20260509111722 68 357 6.0 9.0 0.00 0.00 0.00 78 1009.4
20260509110725 68 335 6.0 8.0 0.00 0.00 0.00 76 1009.4
20260509105722 68 337 6.0 7.0 0.00 0.00 0.00 75 1009.4
20260509104722 68 330 8.0 10.0 0.00 0.00 0.00 74 1009.4
20260509103738 68 313 9.0 14.0 0.00 0.00 0.00 73 1009.6
20260509102821 68 305 9.0 16.0 0.00 0.00 0.00 73 1009.7
20260509101822 68 301 10.0 16.0 0.00 0.00 0.00 70 1009.6
20260509100921 70 291 6.0 10.0 0.00 0.00 0.00 68 1009.5
20260509095921 70 275 9.0 14.0 0.00 0.00 0.00 74 1009.4
20260509094938 70 273 5.0 7.0 0.00 0.00 0.00 80 1009.3
20260509094022 70 288 5.0 12.0 0.00 0.00 0.00 81 1009.3
20260509093022 69 204 8.0 18.0 0.00 0.00 0.00 84 1008.1
20260509092024 68 159 10.0 16.0 0.00 0.00 0.00 88 1006.1
20260509091022 67 161 11.0 14.0 0.00 0.00 0.00 85 1006.0
20260509090038 67 163 8.0 13.0 0.00 0.00 0.00 84 1006.3
20260509083221 67 185 5.0 9.0 0.00 0.00 0.00 86 1007.5
20260509082222 67 181 6.0 13.0 0.00 0.00 0.00 86 1007.9
20260509081221 67 171 8.0 12.0 0.00 0.00 0.00 87 1008.0
20260509080222 67 171 6.0 10.0 0.00 0.00 0.00 85 1008.6
20260509075322 68 164 6.0 9.0 0.00 0.00 0.00 85 1008.6
20260509074322 68 204 4.0 5.0 0.00 0.00 0.00 83 1008.8
20260509073341 69 161 7.0 10.0 0.00 0.00 0.00 81 1009.2
20260509072337 69 201 4.0 5.0 0.00 0.00 0.00 81 1010.1
20260509070423 69 249 5.0 9.0 0.00 0.00 0.00 87 1011.2
20260509065439 68 229 6.0 10.0 0.00 0.00 0.00 91 1011.8
20260509064521 68 270 6.0 9.0 0.00 0.00 0.00 91 1012.5
20260509063540 68 277 4.0 7.0 0.00 0.00 0.00 92 1012.1
20260509062621 67 280 4.0 6.0 0.00 0.00 0.00 93 1012.0